ARG1087 SKBO-SPPY

Flight info

Callsign ARG1087
Flight time N/A
Altitude 34000
Route KAMI4C KAMIS W16 GIR UL305 VUKOK UV3 KUSKU MUKIT
Aircraft E190/M-Y/S

Departure

Time N/A
Airport El Dorado International Airport (SKBO)

Arrival

Time 2026-05-03 20:45
Airport Chachapoyas Airport (SPPY)
Time Latitude Longitude Altitude Speed Heading
2026-05-03 20:15 -3.30489 -76.64895 34015 ft 488 kts 195°
2026-05-03 20:15 -3.36971 -76.66957 33986 ft 489 kts 195°
2026-05-03 20:16 -3.43457 -76.69018 33972 ft 488 kts 195°
2026-05-03 20:16 -3.49922 -76.71073 33944 ft 487 kts 195°
2026-05-03 20:17 -3.56348 -76.73116 33954 ft 488 kts 195°
2026-05-03 20:17 -3.62816 -76.75173 33954 ft 487 kts 195°
2026-05-03 20:18 -3.69278 -76.77228 33950 ft 487 kts 195°
2026-05-03 20:18 -3.75753 -76.79288 34014 ft 488 kts 195°
2026-05-03 20:19 -3.82213 -76.81343 33963 ft 487 kts 195°
2026-05-03 20:19 -3.88672 -76.83399 33934 ft 486 kts 195°
2026-05-03 20:20 -3.95124 -76.85452 33946 ft 486 kts 195°
2026-05-03 20:20 -4.01527 -76.87490 33940 ft 486 kts 195°
2026-05-03 20:21 -4.07968 -76.89541 33946 ft 486 kts 195°
2026-05-03 20:21 -4.14403 -76.91590 33942 ft 485 kts 195°
2026-05-03 20:22 -4.20854 -76.93644 33941 ft 485 kts 195°
2026-05-03 20:22 -4.27244 -76.95679 33943 ft 484 kts 195°
2026-05-03 20:23 -4.33676 -76.97728 33939 ft 484 kts 195°
2026-05-03 20:23 -4.40103 -76.99776 33942 ft 484 kts 195°
2026-05-03 20:24 -4.46521 -77.01822 33939 ft 484 kts 195°
2026-05-03 20:24 -4.52938 -77.03867 33937 ft 484 kts 195°
2026-05-03 20:25 -4.59311 -77.05899 33933 ft 483 kts 195°
2026-05-03 20:25 -4.65713 -77.07940 33935 ft 483 kts 195°
2026-05-03 20:26 -4.72105 -77.09979 33276 ft 482 kts 195°
2026-05-03 20:26 -4.75320 -77.11004 32144 ft 487 kts 195°
2026-05-03 20:26 -4.78561 -77.12038 31082 ft 489 kts 195°
2026-05-03 20:26 -4.81818 -77.13077 29999 ft 493 kts 195°
2026-05-03 20:27 -4.85086 -77.14121 28956 ft 492 kts 195°
2026-05-03 20:27 -4.88345 -77.15160 27632 ft 496 kts 195°
2026-05-03 20:27 -4.91621 -77.16207 26777 ft 489 kts 195°
2026-05-03 20:27 -4.94848 -77.17235 25945 ft 483 kts 195°
2026-05-03 20:28 -4.98034 -77.18253 25141 ft 478 kts 195°
2026-05-03 20:28 -5.01189 -77.19260 24360 ft 472 kts 195°
2026-05-03 20:28 -5.04272 -77.20244 23603 ft 468 kts 195°
2026-05-03 20:28 -5.07357 -77.21229 22772 ft 462 kts 195°
2026-05-03 20:29 -5.10397 -77.22199 21958 ft 455 kts 195°
2026-05-03 20:29 -5.13392 -77.23155 21198 ft 449 kts 195°
2026-05-03 20:29 -5.16346 -77.24100 20441 ft 443 kts 195°
2026-05-03 20:29 -5.19266 -77.25032 19711 ft 437 kts 195°
2026-05-03 20:30 -5.22151 -77.25954 18999 ft 431 kts 195°
2026-05-03 20:30 -5.24988 -77.26859 18310 ft 426 kts 195°
2026-05-03 20:30 -5.27798 -77.27759 17530 ft 421 kts 195°
2026-05-03 20:30 -5.30571 -77.28644 16770 ft 415 kts 195°
2026-05-03 20:31 -5.33305 -77.29519 16065 ft 409 kts 194°
2026-05-03 20:31 -5.35996 -77.30378 15367 ft 403 kts 194°
2026-05-03 20:31 -5.38653 -77.31228 14683 ft 398 kts 194°
2026-05-03 20:31 -5.40400 -77.31785 14251 ft 394 kts 194°
2026-05-03 20:32 -5.43830 -77.32882 13345 ft 387 kts 194°
2026-05-03 20:32 -5.46380 -77.33697 12667 ft 381 kts 194°
2026-05-03 20:32 -5.48881 -77.34497 12030 ft 375 kts 194°
2026-05-03 20:32 -5.51316 -77.35277 11816 ft 364 kts 194°
2026-05-03 20:33 -5.53743 -77.36051 11769 ft 368 kts 194°
2026-05-03 20:33 -5.55366 -77.36567 11765 ft 369 kts 195°
2026-05-03 20:33 -5.58644 -77.37622 11749 ft 369 kts 194°
2026-05-03 20:33 -5.61091 -77.38402 11765 ft 368 kts 194°
2026-05-03 20:34 -5.63534 -77.39184 11777 ft 368 kts 194°
2026-05-03 20:34 -5.65980 -77.39968 11776 ft 368 kts 194°
2026-05-03 20:34 -5.68397 -77.40739 11804 ft 368 kts 194°
2026-05-03 20:34 -5.70045 -77.41263 11879 ft 368 kts 194°
2026-05-03 20:35 -5.73297 -77.42308 12051 ft 371 kts 194°
2026-05-03 20:35 -5.74954 -77.42839 12024 ft 370 kts 194°
2026-05-03 20:35 -5.78198 -77.43879 12046 ft 368 kts 194°
2026-05-03 20:35 -5.80640 -77.44662 12030 ft 369 kts 194°
2026-05-03 20:36 -5.82300 -77.45191 12025 ft 369 kts 194°
2026-05-03 20:36 -5.84752 -77.45972 12026 ft 370 kts 195°
2026-05-03 20:36 -5.87201 -77.46761 12046 ft 369 kts 194°
2026-05-03 20:36 -5.89612 -77.47535 12002 ft 369 kts 194°
2026-05-03 20:37 -5.92060 -77.48311 12047 ft 370 kts 195°
2026-05-03 20:37 -5.94511 -77.49098 12327 ft 370 kts 195°
2026-05-03 20:37 -5.96980 -77.49889 12915 ft 374 kts 194°
2026-05-03 20:37 -5.99465 -77.50706 13583 ft 378 kts 195°
2026-05-03 20:38 -6.01428 -77.51392 14031 ft 382 kts 197°
2026-05-03 20:38 -6.03900 -77.52462 14491 ft 391 kts 202°
2026-05-03 20:38 -6.06394 -77.53634 14628 ft 396 kts 202°
2026-05-03 20:38 -6.08863 -77.54829 14714 ft 393 kts 203°
2026-05-03 20:39 -6.11340 -77.56025 14776 ft 394 kts 202°
2026-05-03 20:39 -6.13749 -77.57195 14754 ft 374 kts 202°
2026-05-03 20:39 -6.16032 -77.58304 14740 ft 354 kts 202°
2026-05-03 20:39 -6.18193 -77.59351 14703 ft 337 kts 202°
2026-05-03 20:40 -6.20263 -77.60350 14519 ft 326 kts 201°
2026-05-03 20:40 -6.22261 -77.61321 14089 ft 311 kts 201°
2026-05-03 20:40 -6.24107 -77.62382 13404 ft 305 kts 217°
2026-05-03 20:40 -6.25355 -77.64047 12729 ft 304 kts 244°
2026-05-03 20:41 -6.25742 -77.66105 12062 ft 300 kts 272°
2026-05-03 20:41 -6.25419 -77.68142 11432 ft 293 kts 284°
2026-05-03 20:41 -6.24889 -77.70089 11153 ft 277 kts 285°
2026-05-03 20:41 -6.24374 -77.71839 11199 ft 245 kts 286°
2026-05-03 20:42 -6.23901 -77.73401 10948 ft 228 kts 286°
2026-05-03 20:42 -6.23432 -77.74949 10276 ft 234 kts 285°
2026-05-03 20:42 -6.22959 -77.76489 9790 ft 223 kts 285°
2026-05-03 20:42 -6.22523 -77.77927 9483 ft 208 kts 284°
2026-05-03 20:43 -6.22130 -77.79252 9378 ft 182 kts 286°
2026-05-03 20:43 -6.21825 -77.80406 9269 ft 167 kts 270°
2026-05-03 20:43 -6.22051 -77.81501 9236 ft 159 kts 235°
2026-05-03 20:43 -6.22549 -77.82487 9252 ft 168 kts 247°
2026-05-03 20:44 -6.22553 -77.83664 8892 ft 172 kts 287°
2026-05-03 20:44 -6.21745 -77.84402 8461 ft 167 kts 353°
2026-05-03 20:44 -6.20751 -77.84993 8247 ft 170 kts 311°
2026-05-03 20:44 -6.20103 -77.85713 8180 ft 84 kts 313°
2026-05-03 20:45 -6.19928 -77.85893 8178 ft 13 kts 301°
2026-05-03 20:45 -6.19938 -77.85895 8184 ft 1 kts 139°
2026-05-03 20:45 -6.19951 -77.85883 8177 ft 4 kts 136°
2026-05-03 20:45 -6.20019 -77.85807 8189 ft 26 kts 131°
2026-05-03 20:46 -6.20139 -77.85664 8184 ft 24 kts 134°
2026-05-03 20:46 -6.20268 -77.85527 8178 ft 34 kts 133°
2026-05-03 20:46 -6.20433 -77.85349 8189 ft 22 kts 132°
2026-05-03 20:46 -6.20535 -77.85235 8194 ft 21 kts 133°
2026-05-03 20:47 -6.20624 -77.85244 8190 ft 16 kts 225°
2026-05-03 20:47 -6.20620 -77.85313 8185 ft 11 kts 319°
2026-05-03 20:47 -6.20625 -77.85338 8185 ft 1 kts 188°
2026-05-03 20:47 -6.20630 -77.85338 8188 ft 1 kts 182°
2026-05-03 20:48 -6.20635 -77.85339 8188 ft 0 kts 184°